Weather History for KCGS - January, 2013

Change the Weather History Date:

Tuesday, January 8, 2013

  Actual Average Record
Temperature  
Mean Temperature 40 °F -  
Max Temperature 54 °F 40 °F 63 °F (1949)
Min Temperature 26 °F 24 °F 2 °F (1968)
Degree Days  
Heating Degree Days 25    
Moisture  
Dew Point 31 °F    
Average Humidity 79    
Maximum Humidity 100    
Minimum Humidity 44    
Precipitation  
Precipitation 0.00 in - - ()
Sea Level Pressure  
Sea Level Pressure 30.40 in    
Wind  
Wind Speed 1 mph (South)    
Max Wind Speed 7 mph    
Max Gust Speed -    
Visibility 9 miles    
Events      
Averages and records for this station are not official NWS values.
T = Trace of Precipitation, MM = Missing Value Source: NWS Daily Summary

Daily Weather History Graph

Daily Weather History Graph

Search for Another Location

Airport or City:

Trip Planner

Search our weather history database for the weather conditions in past years. The results will help you decide how hot, cold, wet, or windy it might be!

Date:

Astronomy

Jan. 08, 2013 Rise Set
Actual Time 7:26 AM EST 5:02 PM EST
Civil Twilight 6:57 AM EST 5:32 PM EST
Nautical Twilight 6:23 AM EST 6:05 PM EST
Astronomical Twilight 5:51 AM EST 6:37 PM EST
Moon 3:57 AM EST (1/8) 2:02 PM EST (1/8)
Length of Visible Light 10h 35m
Length of Day
9h 36m
Waning Crescent, 14% of the Moon is Illuminated
Jan 8
Waning Crescent
Jan 11
New
Jan 18
First Quarter
Jan 26
Full
Feb 3
Last Quarter

Hourly Weather History & Observations

Time (EST) Temp. Windchill Dew Point Humidity Pressure Visibility Wind Dir Wind Speed Gust Speed Precip Events Conditions
12:15 AM 29.1 °F - 27.5 °F 94% 30.42 in 10.0 mi Calm Calm - N/A   Clear
12:35 AM 28.4 °F - 27.5 °F 96% 30.42 in 7.0 mi Calm Calm - N/A   Clear
12:55 AM 28.4 °F - 27.1 °F 95% 30.41 in 10.0 mi Calm Calm - N/A   Clear
1:15 AM 28.0 °F - 27.0 °F 96% 30.41 in 10.0 mi Calm Calm - N/A   Clear
1:40 AM 28.0 °F - 27.3 °F 97% 30.41 in 7.0 mi Calm Calm - N/A   Clear
2:00 AM 28.8 °F - 27.3 °F 94% 30.41 in 7.0 mi Calm Calm - N/A   Clear
2:20 AM 27.5 °F - 26.6 °F 96% 30.41 in 7.0 mi Calm Calm - N/A   Clear
2:45 AM 27.1 °F - 26.4 °F 97% 30.41 in 7.0 mi Calm Calm - N/A   Clear
3:05 AM 27.1 °F - 26.4 °F 97% 30.40 in 7.0 mi Calm Calm - N/A   Clear
3:25 AM 26.4 °F - 25.5 °F 96% 30.40 in 7.0 mi Calm Calm - N/A   Clear
3:40 AM 26.6 °F - 25.9 °F 97% 30.40 in 7.0 mi Calm Calm - N/A   Clear
4:10 AM 26.1 °F - 25.3 °F 97% 30.40 in 7.0 mi Calm Calm - N/A   Clear
4:25 AM 26.4 °F - 26.4 °F 100% 30.39 in 5.0 mi Calm Calm - N/A   Clear
4:50 AM 27.3 °F - 26.6 °F 97% 30.39 in 7.0 mi Calm Calm - N/A   Clear
5:10 AM 26.6 °F - 26.1 °F 98% 30.40 in 7.0 mi Calm Calm - N/A   Clear
5:35 AM 27.1 °F 23.2 °F 26.6 °F 98% 30.40 in 7.0 mi SSE 3.5 mph - N/A   Clear
5:55 AM 30.4 °F 25.6 °F 28.6 °F 93% 30.40 in 10.0 mi SSE 4.6 mph - N/A   Clear
6:15 AM 30.6 °F - 27.9 °F 90% 30.40 in 10.0 mi Calm Calm - N/A   Clear
6:35 AM 32.0 °F - 30.2 °F 93% 30.41 in 10.0 mi Calm Calm - N/A   Clear
7:00 AM 29.3 °F - 28.4 °F 96% 30.41 in 10.0 mi Calm Calm - N/A   Clear
7:40 AM 28.4 °F - 28.2 °F 99% 30.43 in 7.0 mi Calm Calm - N/A   Clear
8:00 AM 30.2 °F - 30.0 °F 99% 30.43 in 7.0 mi Calm Calm - N/A   Clear
8:25 AM 31.1 °F - 30.7 °F 99% 30.43 in 7.0 mi Calm Calm - N/A   Clear
9:05 AM 37.6 °F - 33.4 °F 85% 30.43 in 10.0 mi Calm Calm - N/A   Clear
9:25 AM 41.2 °F - 33.4 °F 74% 30.43 in 10.0 mi Calm Calm - N/A   Clear
9:50 AM 43.0 °F - 33.6 °F 70% 30.42 in 10.0 mi Calm Calm - N/A   Clear
10:10 AM 44.6 °F 40.7 °F 34.0 °F 66% 30.43 in 10.0 mi South 6.9 mph - N/A   Clear
10:30 AM 45.5 °F 41.8 °F 34.2 °F 65% 30.43 in 10.0 mi SSW 6.9 mph - N/A   Clear
10:50 AM 46.8 °F - 34.5 °F 62% 30.43 in 10.0 mi SSW 5.8 mph - N/A   Clear
11:15 AM 48.6 °F - 34.5 °F 58% 30.41 in 10.0 mi SW 4.6 mph - N/A   Clear
11:55 AM 49.3 °F - 34.2 °F 56% 30.40 in 10.0 mi SSW 5.8 mph - N/A   Clear
12:15 PM 50.4 °F - 34.3 °F 54% 30.40 in 10.0 mi South 6.9 mph - N/A   Clear
12:40 PM 51.1 °F - 34.7 °F 54% 30.39 in 10.0 mi South 5.8 mph - N/A   Clear
1:00 PM 51.8 °F - 34.7 °F 52% 30.38 in 10.0 mi SSW 3.5 mph - N/A   Clear
1:20 PM 51.8 °F - 33.8 °F 50% 30.37 in 10.0 mi South 4.6 mph - N/A   Clear
1:40 PM 52.7 °F - 34.2 °F 49% 30.38 in 10.0 mi SSE 5.8 mph - N/A   Clear
2:00 PM 52.2 °F - 34.5 °F 51% 30.38 in 10.0 mi SSE 4.6 mph - N/A   Clear
2:45 PM 53.8 °F - 34.2 °F 47% 30.37 in 10.0 mi SE 3.5 mph - N/A   Clear
3:05 PM 54.1 °F - 34.0 °F 47% 30.38 in 10.0 mi South 3.5 mph - N/A   Clear
3:30 PM 54.5 °F - 33.1 °F 44% 30.38 in 10.0 mi Calm Calm - N/A   Clear
3:50 PM 54.1 °F - 33.8 °F 46% 30.39 in 10.0 mi Calm Calm - N/A   Clear
4:10 PM 54.5 °F - 33.3 °F 45% 30.38 in 10.0 mi Calm Calm - N/A   Clear
4:30 PM 53.8 °F - 33.3 °F 46% 30.38 in 10.0 mi Calm Calm - N/A   Clear
4:55 PM 50.5 °F - 34.5 °F 54% 30.38 in 10.0 mi Calm Calm - N/A   Scattered Clouds
5:15 PM 47.8 °F - 34.3 °F 60% 30.38 in 10.0 mi Calm Calm - N/A   Clear
5:35 PM 44.8 °F - 34.2 °F 66% 30.38 in 10.0 mi Calm Calm - N/A   Clear
5:55 PM 43.2 °F - 35.1 °F 73% 30.38 in 10.0 mi Calm Calm - N/A   Clear
6:20 PM 41.5 °F - 34.2 °F 75% 30.38 in 10.0 mi Calm Calm - N/A   Scattered Clouds
6:40 PM 42.1 °F - 34.9 °F 76% 30.39 in 10.0 mi Calm Calm - N/A   Mostly Cloudy
7:00 PM 41.9 °F - 34.5 °F 75% 30.40 in 10.0 mi Calm Calm - N/A   Mostly Cloudy
7:20 PM 40.6 °F - 35.6 °F 82% 30.40 in 10.0 mi Calm Calm - N/A   Scattered Clouds
8:25 PM 37.2 °F - 34.2 °F 89% 30.38 in 10.0 mi Calm Calm - N/A   Clear
8:45 PM 36.0 °F - 34.7 °F 95% 30.39 in 10.0 mi Calm Calm - N/A   Clear
9:10 PM 36.0 °F - 35.4 °F 98% 30.40 in 10.0 mi Calm Calm - N/A   Clear
9:50 PM 34.7 °F - 32.7 °F 92% 30.40 in 10.0 mi Calm Calm - N/A   Clear
10:10 PM 33.8 °F - 32.9 °F 96% 30.40 in 10.0 mi Calm Calm - N/A   Clear
10:35 PM 33.8 °F - 33.8 °F 100% 30.40 in 7.0 mi Calm Calm - N/A   Clear
10:55 PM 32.9 °F - 32.9 °F 100% 30.40 in 10.0 mi Calm Calm - N/A   Clear
11:15 PM 32.2 °F - 32.0 °F 99% 30.39 in 7.0 mi Calm Calm - N/A   Clear